Home   Weather   Brighton   Past weeks
Flag for United Kingdom

Past Weather in Brighton, England, United Kingdom — Yesterday and Last 2 Weeks

Now
63 °F

Sunny.


Feels Like: 63 °F
Forecast: 64 / 54 °F
Wind: 8 mph from West

Location: Shoreham Airport

Current Time: May 24, 2019 at 11:10:34 pm

Latest Report: May 24, 2019 at 7:50 pm


Visibility: 10 mi

Pressure: 30.04 "Hg

Humidity: 68%

Dew Point: 52 °F

Location of BrightonLocation

Past Weather in Brighton — Graph

°F

Brighton Temperature Yesterday

Maximum temperature yesterday: 63 °F (at 10:50 am)
Minimum temperature yesterday: 55 °F (at 7:50 am)
Average temperature yesterday: 60 °F

High & Low Weather Summary for the Past Weeks

 TemperatureHumidityPressure
High68 °F (May 24, 11:50 am)94% (May 10, 7:50 am)30.72 "Hg (May 10, 7:50 am)
Low48 °F (May 10, 7:50 am)34% (May 16, 4:20 pm)29.59 "Hg (May 9, 7:20 pm)
Average59 °F66%30.11 "Hg
* Reported May 9 7:20 pm — May 24 7:50 pm, Brighton. Weather by CustomWeather, © 2019

Note: Actual official high and low records may vary slightly from our data, if they occured in-between our weather recording intervals... More about our weather records

Advertising

Brighton Weather History for the Previous 24 Hours

Scroll right to see more
 ConditionsComfort  
Time TempWeatherWind HumidityBarometerVisibility
7:50 pm
Fri, May 24
63 °FSunny.8 mph68%30.04 "Hg10 mi
6:50 pm63 °FSunny.6 mph77%30.04 "Hg10 mi
6:20 pm64 °FSunny.7 mph68%30.04 "Hg10 mi
5:50 pm63 °FSunny.8 mph68%30.04 "Hg10 mi
5:20 pm64 °FSunny.13 mph64%30.04 "Hg10 mi
4:50 pm64 °FSunny.15 mph60%30.04 "Hg10 mi
4:20 pm64 °FSunny.12 mph64%30.04 "Hg10 mi
3:50 pm64 °FSunny.14 mph64%30.04 "Hg10 mi
3:20 pm63 °FSunny.13 mph64%30.04 "Hg10 mi
2:50 pm64 °FSunny.16 mph60%30.04 "Hg10 mi
2:20 pm64 °FSunny.16 mph68%30.04 "Hg10 mi
1:50 pm68 °FScattered clouds.12 mph60%30.04 "HgN/A
1:20 pm64 °FScattered clouds.13 mph60%30.04 "HgN/A
12:50 pm66 °FScattered clouds.13 mph64%30.04 "HgN/A
12:20 pm68 °FPassing clouds.9 mph56%30.04 "HgN/A
11:50 am68 °FPassing clouds.6 mph53%30.04 "HgN/A
11:20 am66 °FSunny.6 mph52%30.04 "Hg10 mi
10:50 am64 °FSunny.7 mph60%30.04 "Hg10 mi
10:20 am64 °FSunny.8 mph56%30.04 "Hg10 mi
9:50 am64 °FSunny.9 mph60%30.04 "Hg10 mi
9:20 am61 °FSunny.10 mph68%30.04 "Hg10 mi
8:50 am59 °FSunny.10 mph68%30.04 "Hg10 mi
8:20 am57 °FSunny.13 mph72%30.01 "Hg10 mi
Weather by CustomWeather, © 2019

See weather overview